Location: Dalton
(34.7700°N, 84.9700°W)
Time: 20:31:55
(UTC-04:00)

ISS - Pass Details

Date: 10 October 2017
Orbit: 400 x 408 km, 51.6° (Epoch: 24 October)

Event Time Altitude Azimuth Distance (km) Brightness Sun altitude
Rises 21:18:02 0° 321° (NW) 2,326 0.7 -26.8°
Reaches altitude 10° 21:20:19 10° 334° (NNW) 1,465 -0.6 -27.2°
Enters shadow 21:20:23 10° 335° (NNW) 1,438 -0.6 -27.3°
